1337472028821,0.917674
1337472088821,0.914121
1337472148821,0.919161
1337472208821,0.922598
1337472268821,0.911304
1337472328821,0.924959
1337472388821,0.915460
1337472448821,0.925281
1337472508821,0.917918
1337472568821,0.924090
1337472628821,0.925794
1337472688821,0.919472
1337472748821,0.918029
1337472808821,0.918394
1337472868821,0.914657
1337472928821,0.921100
1337472988821,0.928581
1337473048821,0.927658
1337473108821,0.919985
1337473168821,0.920767
1337473228821,0.913055
1337473288821,0.924887
1337473348821,0.925725
1337473408821,0.927268
1337473468821,0.921658
1337473528821,0.922648
1337473588821,0.916686
1337473648821,0.916005
1337473708821,0.917513
1337473768821,0.918632
1337473828821,0.917769
1337473888821,0.914770
1337473948821,0.913422
1337474008821,0.918533
1337474068821,0.923799
1337474128821,0.926875
1337474188821,0.927533
1337474248821,0.923783
1337474308821,0.917600
1337474368821,0.919758
1337474428821,0.922080
1337474488821,0.918569
1337474548821,0.926559
1337474608821,0.923680
1337474668821,0.918243
1337474728821,0.919640
1337474788821,0.915455
1337474848821,0.914531
1337474908821,0.923906
1337474968821,0.924856
1337475028821,0.917292
1337475088821,0.918703
1337475148821,0.929770
1337475208821,0.919949
1337475268821,0.916270
1337475328821,0.915056
1337475388821,0.927455
1337475448821,0.918685
1337475508821,0.919811
1337475568821,0.916761
1337475628832,0.919748
1337475688832,0.921755
1337475748832,0.916863
1337475808832,0.922701
1337475868832,0.919736
1337475928832,0.921513
1337475988832,0.918203
1337476048832,0.918853
1337476108832,0.920895
1337476168832,0.926310
1337476228832,0.918395
1337476288832,0.920531
1337476348832,0.928459
1337476408832,0.918225
1337476468832,0.924034
1337476528832,0.916294
1337476588832,0.920638
1337476648832,0.917288
1337476708832,0.918636
1337476768832,0.915843
1337476828832,0.914130
1337476888832,0.919097
1337476948832,0.917820
1337477008832,0.919305
1337477068832,0.910190
1337477128832,0.917780
1337477188832,0.914156
1337477248832,0.918972
1337477308832,0.912353
1337477368832,0.919627
1337477428832,0.913092
1337477488832,0.921461
1337477548832,0.919973
1337477608832,0.912935
1337477668832,0.913884
1337477728832,0.915759
1337477788832,0.921217
1337477848832,0.923387
1337477908832,0.913881
1337477968832,0.912249
1337478028832,0.917805
1337478088832,0.915170
1337478148832,0.915533
1337478208832,0.913067
1337478268832,0.915619
1337478328832,0.912247
1337478388832,0.910656
1337478448832,0.919812
1337478508832,0.915436
1337478568832,0.926966
1337478628832,0.915179
1337478688832,0.918175
1337478748832,0.907195
1337478808832,0.913123
1337478868832,0.908628
1337478928832,0.921356
1337478988832,0.912413
1337479048832,0.915301
1337479108832,0.914311
1337479168832,0.911752
1337479228843,0.910752
1337479288843,0.916639
1337479348843,0.919442
1337479408843,0.908952
1337479468843,0.913756
1337479528843,0.913117
1337479588843,0.916867
1337479648843,0.911126
1337479708843,0.917167
1337479768843,0.916655
1337479828843,0.917309
1337479888843,0.918876
1337479948843,0.914404
1337480008843,0.910951
1337480068843,0.916996
1337480128843,0.914070
1337480188843,0.915736
1337480248843,0.922634
1337480308843,0.914392
1337480368843,0.910438
1337480428843,0.914473
1337480488843,0.908950
1337480548843,0.919121
1337480608843,0.916706
1337480668843,0.916136
1337480728843,0.921021
1337480788843,0.915668
1337480848843,0.915235
1337480908843,0.919591
1337480968843,0.917223
1337481028843,0.920665
1337481088843,0.916027
1337481148843,0.923835
1337481208843,0.913507
1337481268843,0.913416
1337481328843,0.910501
1337481388843,0.913690
1337481448843,0.921763
1337481508843,0.915228
1337481568843,0.917358
1337481628843,0.921153
1337481688843,0.919663
1337481748843,0.917515
1337481808843,0.933573
1337481868843,0.919897
1337481928843,0.920866
1337481988843,0.921976
1337482048843,0.908707
1337482108843,0.914859
1337482168843,0.910691
1337482228843,0.926507
1337482288843,0.926542
1337482348843,0.913864
1337482408843,0.921414
1337482468843,0.921579
1337482528843,0.920742
1337482588843,0.923685
1337482648843,0.927356
1337482708843,0.925896
1337482768843,0.920322
1337482828853,0.916959
1337482888853,0.917663
1337482948853,0.919776
1337483008853,0.924367
1337483068853,0.923625
1337483128853,0.921002
1337483188853,0.924715
1337483248853,0.914828
1337483308853,0.915132
1337483368853,0.923656
1337483428853,0.923365
1337483488853,0.920142
1337483548853,0.921936
1337483608853,0.927274
1337483668853,0.930592
1337483728853,0.917304
1337483788853,0.919601
1337483848853,0.920835
1337483908853,0.921026
1337483968853,0.917338
1337484028853,0.921448
1337484088853,0.911632
1337484148853,0.922650
1337484208853,0.927004
1337484268853,0.922364
1337484328853,0.926866
1337484388853,0.923689
1337484448853,0.922595
1337484508853,0.921100
1337484568853,0.912156
1337484628853,0.920597
1337484688853,0.925603
1337484748853,0.923618
1337484808853,0.929848
1337484868853,0.921166
1337484928853,0.920457
1337484988853,0.930336
1337485048853,0.925343
1337485108853,0.928312
1337485168853,0.922596
1337485228853,0.925758
1337485288853,0.925824
1337485348853,0.920087
1337485408853,0.925577
1337485468853,0.921780
1337485528853,0.924783
1337485588853,0.922137
1337485648853,0.927627
1337485708853,0.922215
1337485768853,0.920168
1337485828853,0.930992
1337485888853,0.928565
1337485948853,0.927717
1337486008853,0.927732
1337486068853,0.932341
1337486128853,0.926347
1337486188853,0.933119
1337486248853,0.929860
1337486308853,0.921314
1337486368853,0.932724
1337486428864,0.930967
1337486488864,0.930107
1337486548864,0.934474
1337486608864,0.927561
1337486668864,0.930242
1337486728864,0.927879
1337486788864,0.925269
1337486848864,0.920115
1337486908864,0.926256
1337486968864,0.926609
1337487028864,0.934896
1337487088864,0.924830
1337487148864,0.927986
1337487208864,0.927034
1337487268864,0.919284
1337487328864,0.929133
1337487388864,0.930606
1337487448864,0.924095
1337487508864,0.928083
1337487568864,0.929007
1337487628864,0.928191
1337487688864,0.928742
1337487748864,0.917204
1337487808864,0.925023
1337487868864,0.915730
1337487928864,0.927619
1337487988864,0.930773
1337488048864,0.933506
1337488108864,0.929065
1337488168864,0.928954
1337488228864,0.923636
1337488288864,0.929037
1337488348864,0.926158
1337488408864,0.929474
1337488468864,0.920493
1337488528864,0.922913
1337488588864,0.931411
1337488648864,0.926128
1337488708864,0.923123
1337488768864,0.928728
1337488828864,0.921609
1337488888864,0.916366
1337488948864,0.924012
1337489008864,0.923827
1337489068864,0.926687
1337489128864,0.917630
1337489188864,0.932564
1337489248864,0.926426
1337489308864,0.928377
1337489368864,0.926657
1337489428864,0.919857
1337489488864,0.929321
1337489548864,0.929671
1337489608864,0.935465
1337489668864,0.929861
1337489728864,0.922841
1337489788864,0.918980
1337489848864,0.917493
1337489908864,0.926548
1337489968864,0.912014
1337490028874,0.921367
1337490088874,0.923419
1337490148874,0.921080
1337490208874,0.919575
1337490268874,0.919243
1337490328874,0.925115
1337490388874,0.923916
1337490448874,0.922096
1337490508874,0.921169
1337490568874,0.921477
1337490628874,0.921523
1337490688874,0.913402
1337490748874,0.925637
1337490808874,0.915717
1337490868874,0.905715
1337490928874,0.922435
1337490988874,0.921411
1337491048874,0.923301
1337491108874,0.921348
1337491168874,0.924913
1337491228874,0.910382
1337491288874,0.915071
1337491348874,0.917791
1337491408874,0.919874
1337491468874,0.912240
1337491528874,0.924860
1337491588874,0.926268
1337491648874,0.918251
1337491708874,0.921365
1337491768874,0.923419
1337491828874,0.924050
1337491888874,0.920264
1337491948874,0.924610
1337492008874,0.923970
1337492068874,0.924997
1337492128874,0.920720
1337492188874,0.922225
1337492248874,0.916672
1337492308874,0.918107
1337492368874,0.924524
1337492428874,0.921082
1337492488874,0.928555
1337492548874,0.927985
1337492608874,0.928759
1337492668874,0.927551
1337492728874,0.931100
1337492788874,0.925789
1337492848874,0.932717
1337492908874,0.922960
1337492968874,0.941093
1337493028874,0.941844
1337493088874,0.931843
1337493148874,0.934280
1337493208874,0.932203
1337493268874,0.933854
1337493328874,0.930872
1337493388874,0.926121
1337493448874,0.929637
1337493508874,0.922192
1337493568874,0.924752
1337493628884,0.920142
1337493688884,0.926109
1337493748884,0.927858
1337493808884,0.921913
1337493868884,0.926796
1337493928884,0.927072
1337493988884,0.931596
1337494048884,0.925212
1337494108884,0.908204
1337494168884,0.916329
1337494228884,0.928437
1337494288884,0.925699
1337494348884,0.927889
1337494408884,0.918148
1337494468884,0.924389
1337494528884,0.920852
1337494588884,0.928670
1337494648884,0.925282
1337494708884,0.923459
1337494768884,0.930849
1337494828884,0.920829
1337494888884,0.921924
1337494948884,0.927532
1337495008884,0.920403
1337495068884,0.920692
1337495128884,0.915822
1337495188884,0.912587
1337495248884,0.917118
1337495308884,0.919275
1337495368884,0.927054
1337495428884,0.924061
1337495488884,0.922911
1337495548884,0.922489
1337495608884,0.919262
1337495668884,0.921121
1337495728884,0.925014
1337495788884,0.920035
1337495848884,0.922975
1337495908884,0.910514
1337495968884,0.922303
1337496028884,0.910802
1337496088884,0.920242
1337496148884,0.921120
1337496208884,0.916736
1337496268884,0.919685
1337496328884,0.918249
1337496388884,0.919352
1337496448884,0.919477
1337496508884,0.912546
1337496568884,0.915756
1337496628884,0.915753
1337496688884,0.919837
1337496748884,0.915352
1337496808884,0.912243
1337496868884,0.922784
1337496928884,0.918860
1337496988884,0.915669
1337497048884,0.920198
1337497108884,0.914246
1337497168884,0.919466
1337497228893,0.919353
1337497288893,0.912453
1337497348893,0.919744
1337497408893,0.913802
1337497468893,0.915864
1337497528893,0.918696
1337497588893,0.921437
1337497648893,0.917676
1337497708893,0.923080
1337497768893,0.910716
1337497828893,0.914692
1337497888893,0.918376
1337497948893,0.917810
1337498008893,0.919723
1337498068893,0.925071
1337498128893,0.918254
1337498188893,0.916925
1337498248893,0.922650
1337498308893,0.914143
1337498368893,0.916221
1337498428893,0.918706
1337498488893,0.932839
1337498548893,0.918882
1337498608893,0.919094
1337498668893,0.921751
1337498728893,0.909546
1337498788893,0.918899
1337498848893,0.917295
1337498908893,0.910454
1337498968893,0.914719
1337499028893,0.913470
1337499088893,0.919513
1337499148893,0.918898
1337499208893,0.916640
1337499268893,0.922379
1337499328893,0.915901
1337499388893,0.917932
1337499448893,0.919227
1337499508893,0.917910
1337499568893,0.917576
1337499628893,0.905042
1337499688893,0.923295
1337499748893,0.920758
1337499808893,0.922721
1337499868893,0.933385
1337499928893,0.925045
1337499988893,0.921623
1337500048893,0.920504
1337500108893,0.921958
1337500168893,0.916098
1337500228893,0.929623
1337500288893,0.925392
1337500348893,0.918889
1337500408893,0.917184
1337500468893,0.928186
1337500528893,0.923099
1337500588893,0.920617
1337500648893,0.929142
1337500708893,0.927775
1337500768893,0.916791
1337500828903,0.917600
1337500888903,0.916414
1337500948903,0.920201
1337501008903,0.918145
1337501068903,0.920726
1337501128903,0.916697
1337501188903,0.912566
1337501248903,0.919603
1337501308903,0.923730
1337501368903,0.918754
1337501428903,0.917429
1337501488903,0.917901
1337501548903,0.915967
1337501608903,0.912809
1337501668903,0.914265
1337501728903,0.916805
1337501788903,0.918810
1337501848903,0.923576
1337501908903,0.920894
1337501968903,0.924816
1337502028903,0.922815
1337502088903,0.916068
1337502148903,0.910903
1337502208903,0.925786
1337502268903,0.922605
1337502328903,0.920312
1337502388903,0.918040
1337502448903,0.937206
1337502508903,0.918025
1337502568903,0.918673
1337502628903,0.923005
1337502688903,0.926368
1337502748903,0.925445
1337502808903,0.916038
1337502868903,0.914912
1337502928903,0.924278
1337502988903,0.912645
1337503048903,0.921029
1337503108903,0.917141
1337503168903,0.916985
1337503228903,0.922687
1337503288903,0.921522
1337503348903,0.923173
1337503408903,0.916157
1337503468903,0.918570
1337503528903,0.913782
1337503588903,0.923532
1337503648903,0.915025
1337503708903,0.918193
1337503768903,0.918932
1337503828903,0.913270
1337503888903,0.919324
1337503948903,0.920279
1337504008903,0.906409
1337504068903,0.921569
1337504128903,0.917867
1337504188903,0.918184
1337504248903,0.918033
1337504308903,0.916385
1337504368903,0.911051
1337504428913,0.915034
1337504488913,0.920888
1337504548913,0.924714
1337504608913,0.917245
1337504668913,0.931250
1337504728913,0.913803
1337504788913,0.926812
1337504848913,0.926704
1337504908913,0.919010
1337504968913,0.931403
1337505028913,0.923811
1337505088913,0.916759
1337505148913,0.921727
1337505208913,0.924146
1337505268913,0.919735
1337505328913,0.925548
1337505388913,0.924040
1337505448913,0.925432
1337505508913,0.920824
1337505568913,0.922027
1337505628913,0.922233
1337505688913,0.913851
1337505748913,0.916913
1337505808913,0.921386
1337505868913,0.918213
1337505928913,0.913909
1337505988913,0.926318
1337506048913,0.925215
1337506108913,0.922207
1337506168913,0.924650
1337506228913,0.918674
1337506288913,0.933873
1337506348913,0.923276
1337506408913,0.924143
1337506468913,0.921633
1337506528913,0.915369
1337506588913,0.928785
1337506648913,0.923365
1337506708913,0.918838
1337506768913,0.925096
1337506828913,0.920222
1337506888913,0.931172
1337506948913,0.926696
1337507008913,0.928027
1337507068913,0.927149
1337507128913,0.925468
1337507188913,0.933263
1337507248913,0.928350
1337507308913,0.937228
1337507368913,0.931319
1337507428913,0.936101
1337507488913,0.931141
1337507548913,0.936422
1337507608913,0.938288
1337507668913,0.940604
1337507728913,0.943135
1337507788913,0.946340
1337507848913,0.933277
1337507908913,0.943773
1337507968913,0.934258
1337508028923,0.931821
1337508088923,0.930318
1337508148923,0.935302
1337508208923,0.926821
1337508268923,0.926740
1337508328923,0.942619
1337508388923,0.938781
1337508448923,0.943559
1337508508923,0.951197
1337508568923,0.957545
1337508628923,0.948053
1337508688923,0.956191
1337508748923,0.964311
1337508808923,0.961249
1337508868923,0.955868
1337508928923,0.957201
1337508988923,0.951485
1337509048923,0.948027
1337509108923,0.944680
1337509168923,0.949105
1337509228923,0.946776
1337509288923,0.942338
1337509348923,0.938806
1337509408923,0.930311
1337509468923,0.935256
1337509528923,0.936162
1337509588923,0.931452
1337509648923,0.934240
1337509708923,0.937236
1337509768923,0.937789
1337509828923,0.924258
1337509888923,0.932451
1337509948923,0.934050
1337510008923,0.928763
1337510068923,0.930516
1337510128923,0.941460
1337510188923,0.939618
1337510248923,0.940752
1337510308923,0.932143
1337510368923,0.932661
1337510428923,0.928512
1337510488923,0.931523
1337510548923,0.940583
1337510608923,0.943708
1337510668923,0.934103
1337510728923,0.936795
1337510788923,0.940376
1337510848923,0.937430
1337510908923,0.936640
1337510968923,0.929227
1337511028923,0.930878
1337511088923,0.939609
1337511148923,0.935094
1337511208923,0.931163
1337511268923,0.936478
1337511328923,0.939658
1337511388923,0.933327
1337511448923,0.930113
1337511508923,0.926306
1337511568923,0.936392
1337511628932,0.939828
1337511688932,0.934350
1337511748932,0.928143
1337511808932,0.935461
1337511868932,0.931104
1337511928932,0.935102
1337511988932,0.938730
1337512048932,0.935170
1337512108932,0.930654
1337512168932,0.940757
1337512228932,0.928651
1337512288932,0.936036
1337512348932,0.927758
1337512408932,0.933461
1337512468932,0.938849
1337512528932,0.918606
1337512588932,0.927712
1337512648932,0.925578
1337512708932,0.920098
1337512768932,0.935301
1337512828932,0.933188
1337512888932,0.927718
1337512948932,0.920970
1337513008932,0.925592
1337513068932,0.928245
1337513128932,0.923034
1337513188932,0.932468
1337513248932,0.924406
1337513308932,0.924978
1337513368932,0.925055
1337513428932,0.922178
1337513488932,0.918073
1337513548932,0.917998
1337513608932,0.916447
1337513668932,0.923220
1337513728932,0.928344
1337513788932,0.922272
1337513848932,0.923858
1337513908932,0.921593
1337513968932,0.929556
1337514028932,0.927030
1337514088932,0.924002
1337514148932,0.924667
1337514208932,0.924401
1337514268932,0.921959
1337514328932,0.922456
1337514388932,0.924824
1337514448932,0.923362
1337514508932,0.922261
1337514568932,0.923934
1337514628932,0.918379
1337514688932,0.926877
1337514748932,0.919736
1337514808932,0.917544
1337514868932,0.929087
1337514928932,0.924259
1337514988932,0.915826
1337515048932,0.924489
1337515108932,0.929665
1337515168932,0.924925
1337515228942,0.927397
1337515288942,0.920143
1337515348942,0.924375
1337515408942,0.921663
1337515468942,0.918592
1337515528942,0.928287
1337515588942,0.925171
1337515648942,0.922503
1337515708942,0.918723
1337515768942,0.926450
1337515828942,0.924855
1337515888942,0.927204
1337515948942,0.924804
1337516008942,0.928362
1337516068942,0.926506
1337516128942,0.925354
1337516188942,0.917463
1337516248942,0.917547
1337516308942,0.917904
1337516368942,0.924931
1337516428942,0.923841
1337516488942,0.916642
1337516548942,0.919742
1337516608942,0.922391
1337516668942,0.925583
1337516728942,0.919137
1337516788942,0.926219
1337516848942,0.924979
1337516908942,0.921042
1337516968942,0.922354
1337517028942,0.926085
1337517088942,0.929525
1337517148942,0.930303
1337517208942,0.921539
1337517268942,0.923880
1337517328942,0.938096
1337517388942,0.926883
1337517448942,0.930762
1337517508942,0.934152
1337517568942,0.927329
1337517628942,0.926573
1337517688942,0.939465
1337517748942,0.927873
1337517808942,0.934682
1337517868942,0.931956
1337517928942,0.922843
1337517988942,0.927089
1337518048942,0.927064
1337518108942,0.935278
1337518168942,0.937156
1337518228942,0.931384
1337518288942,0.933707
1337518348942,0.932717
1337518408942,0.924312
1337518468942,0.930713
1337518528942,0.925274
1337518588942,0.927467
1337518648942,0.921317
1337518708942,0.925406
1337518768942,0.927153
1337518828951,0.932146
1337518888951,0.925538
1337518948951,0.928678
1337519008951,0.931795
1337519068951,0.931529
1337519128951,0.929460
1337519188951,0.928491
1337519248951,0.923104
1337519308951,0.931315
1337519368951,0.926199
1337519428951,0.929675
1337519488951,0.927302
1337519548951,0.927495
1337519608951,0.929855
1337519668951,0.927820
1337519728951,0.927921
1337519788951,0.927894
1337519848951,0.927427
1337519908951,0.928926
1337519968951,0.931427
1337520028951,0.931539
1337520088951,0.925416
1337520148951,0.942174
1337520208951,0.943056
1337521348951,0.942856
1337521408951,0.938574
1337521468951,0.938057
1337521528951,0.938281
1337521588951,0.928686
1337521648951,0.934266
1337521708951,0.938725
1337521768951,0.939274
1337521828951,0.931786
1337521888951,0.930627
1337521948951,0.934873
1337522008951,0.932683
1337522068951,0.935543
1337522128951,0.929540
1337522188951,0.931506
1337522248951,0.940252
1337522308951,0.925700
1337522368951,0.932419
1337522428961,0.934988
1337522488961,0.931756
1337522548961,0.924702
1337522608961,0.927354
1337522668961,0.925841
1337522728961,0.932547
1337522788961,0.927115
1337522848961,0.932827
1337522908961,0.926538
1337522968961,0.930744
1337523028961,0.923919
1337523088961,0.927463
1337523148961,0.932693
1337523208961,0.925700
1337523268961,0.922501
1337523328961,0.931844
1337523388961,0.926135
1337523448961,0.915823
1337523508961,0.932038
1337523568961,0.928438
1337523628961,0.924593
1337523688961,0.926881
1337523748961,0.928357
1337523808961,0.929134
1337523868961,0.931593
1337523928961,0.920360
1337523988961,0.924154
1337524048961,0.928472
1337524108961,0.925137
1337524168961,0.934185
1337524228961,0.929440
1337524288961,0.932998
1337524348961,0.928298
1337524408961,0.928068
1337524468961,0.930403
1337524528961,0.936846
1337524588961,0.933216
1337524648961,0.936035
1337524708961,0.932451
1337524768961,0.934367
1337524828961,0.936373
1337524888961,0.923819
1337524948961,0.929623
1337525008961,0.928650
1337525068961,0.921466
1337525128961,0.929700
1337525188961,0.932590
1337525248961,0.932288
1337525308961,0.928308
1337525368961,0.919957
1337525428961,0.929815
1337525488961,0.929902
1337525548961,0.934408
1337525608961,0.923556
1337525668961,0.919257
1337525728961,0.921734
1337525788961,0.929472
1337525848961,0.927048
1337525908961,0.924500
1337525968961,0.928559
1337526028971,0.928123
1337526088971,0.927907
1337526148971,0.922108
1337526208971,0.923762
1337526268971,0.924513
1337526328971,0.916720
1337526388971,0.915505
1337526448971,0.959809
1337526508971,0.918481
1337526568971,0.926418
1337526628971,0.926089
1337526688971,0.929096
1337526748971,0.921012
1337526808971,0.924470
1337526868971,0.919627
1337526928971,0.919593
1337526988971,0.919226
1337527048971,0.928486
1337527108971,0.920563
1337527168971,0.921003
1337527228971,0.926471
1337527288971,0.922828
1337527348971,0.925560
1337527408971,0.925589
1337527468971,0.915511
1337527528971,0.924813
1337527588971,0.919378
1337527648971,0.930077
1337527708971,0.921613
1337527768971,0.922829
1337527828971,0.918916
1337527888971,0.923156
1337527948971,0.921326
1337528008971,0.922341
1337528068971,0.922383
1337528128971,0.922843
1337528188971,0.914685
1337528248971,0.917375
1337528308971,0.914119
1337528368971,0.919337
1337528428971,0.920494
1337528488971,0.923534
1337528548971,0.921302
1337528608971,0.930194
1337528668971,0.924116
1337528728971,0.926570
1337528788971,0.920093
1337528848971,0.931301
1337528908971,0.919157
1337528968971,0.927343
1337529028971,0.918017
1337529088971,0.920180
1337529148971,0.921526
1337529208971,0.925516
1337529268971,0.913204
1337529328971,0.913702
1337529388971,0.919352
1337529448971,0.922506
1337529508971,0.925829
1337529568971,0.924926
1337529628981,0.922772
1337529688981,0.926533
1337529748981,0.926257
1337529808981,0.917114
1337529868981,0.923479
1337529928981,0.925136
1337529988981,0.927806
1337530048981,0.923760
1337530108981,0.927436
1337530168981,0.916392
1337530228981,0.928191
1337530288981,0.934962
1337530348981,0.919583
1337530408981,0.920030
1337530468981,0.927145
1337530528981,0.927256
1337530588981,0.921839
1337530648981,0.921783
1337530708981,0.933105
1337530768981,0.922150
1337530828981,0.922800
1337530888981,0.919670
1337530948981,0.927126
1337531008981,0.923050
1337531068981,0.918430
1337531128981,0.924888
1337531188981,0.924127
1337531248981,0.923525
1337531308981,0.919205
1337531368981,0.921111
1337531428981,0.926581
1337531488981,0.924009
1337531548981,0.925206
1337531608981,0.922316
1337531668981,0.922236
1337531728981,0.918298
1337531788981,0.919647
1337531848981,0.922549
1337531908981,0.927250
1337531968981,0.917813
1337532028981,0.926070
1337532088981,0.924802
1337532148981,0.911704
1337532208981,0.909756
1337532268981,0.910074
1337532328981,0.924105
1337532388981,0.921644
1337532448981,0.932859
1337532508981,0.919183
1337532568981,0.920346
1337532628981,0.922370
1337532688981,0.916931
1337532748981,0.931364
1337532808981,0.911803
1337532868981,0.921659
1337532928981,0.922415
1337532988981,0.914387
1337533048981,0.919946
1337533108981,0.919868
1337533168981,0.919194
1337533228991,0.922050
1337533288991,0.910635
1337533348991,0.917492
1337533408991,0.922979
1337533468991,0.919981
1337533528991,0.917300
1337533588991,0.919191
1337533648991,0.923805
1337533708991,0.921772
1337533768991,0.926708
1337533828991,0.910684
1337533888991,0.926277
1337533948991,0.922523
1337534008991,0.919622
1337534068991,0.923054
1337534128991,0.919890
1337534188991,0.920754
1337534248991,0.918802
1337534308991,0.920575
1337534368991,0.919290
1337534428991,0.914285
1337534488991,0.918094
1337534548991,0.918007
1337534608991,0.919949
1337534668991,0.918655
1337534728991,0.922902
1337534788991,0.927732
1337534848991,0.918245
1337534908991,0.920768
1337534968991,0.925562
1337535028991,0.917562
1337535088991,0.925175
1337535148991,0.925587
1337535208991,0.920732
1337535268991,0.923676
1337535328991,0.920654
1337535388991,0.920208
1337535448991,0.920033
1337535508991,0.920866
1337535568991,0.925584
1337535628991,0.924069